Location: Mapua
(41.2500°S, 173.1000°E)
Time: 23:33:05
(UTC+12:00)

Envisat - Visible Passes

Search period start: 21 September 2018 00:00
Search period end: 01 October 2018 01:00
Orbit: 764 x 766 km, 98.2° (Epoch: 20 September)

Date Brightness Start Highest point End Pass type
(mag) Time Alt. Az. Time Alt. Az. Time Alt. Az.
21 Sep 3.9 19:27:40 10° SE 19:31:55 25° E 19:36:05 10° NNE visible
21 Sep 4.3 21:06:15 10° S 21:11:00 39° WSW 21:15:43 10° NW visible
22 Sep 4.8 18:53:23 10° ESE 18:54:46 11° E 18:56:08 10° ENE visible
22 Sep 3.0 20:29:14 10° SSE 20:34:25 84° WSW 20:39:32 10° NNW visible
22 Sep 6.0 22:11:07 10° SW 22:12:34 11° WSW 22:14:03 10° WSW visible
23 Sep 3.3 19:52:42 10° SSE 19:57:38 44° E 20:02:29 10° N visible
23 Sep 5.2 21:32:20 10° SSW 21:36:20 23° WSW 21:40:19 10° WNW visible
24 Sep 4.2 19:16:52 10° SE 19:20:38 20° E 19:24:21 10° NE visible
24 Sep 3.9 20:54:57 10° S 20:59:54 48° WSW 21:04:47 10° NW visible
25 Sep 2.9 20:18:03 10° SSE 20:23:15 78° ENE 20:28:21 10° N visible
25 Sep 5.8 21:58:59 10° SSW 22:01:34 14° WSW 22:04:09 10° W visible
26 Sep 3.6 19:41:41 10° SSE 19:46:24 35° E 19:51:02 10° NNE visible
26 Sep 4.9 21:20:54 10° S 21:25:16 29° WSW 21:29:36 10° NW visible
27 Sep 4.5 19:06:15 10° SE 19:09:20 16° E 19:12:23 10° NE visible
27 Sep 3.4 20:43:40 10° S 20:48:46 61° WSW 20:53:47 10° NNW visible
28 Sep 3.0 20:06:56 10° SSE 20:12:03 61° E 20:17:06 10° N visible
28 Sep 5.6 21:47:15 10° SSW 21:50:33 17° WSW 21:53:50 10° WNW visible
29 Sep 3.8 19:30:45 10° SE 19:35:09 28° E 19:39:28 10° NNE visible
29 Sep 4.5 21:09:31 10° S 21:14:11 35° WSW 21:18:48 10° NW visible
30 Sep 4.7 19:55:58 10° ESE 19:58:01 12° E 20:00:04 10° ENE visible
30 Sep 3.1 21:32:27 10° S 21:37:37 77° WSW 21:42:42 10° NNW visible
30 Sep 6.1 23:15:16 10° SW 23:15:43 10° WSW 23:16:09 10° WSW visible
